EW5822 Weather Reports


Display with metric or nautical units.
time (UTC)temp
F
wind
direction
speed
MPH
gust
MPH
rain 1hr
in
rain 24hr
in
rain mn
in
humidity
%
barometer
mb
20260902090903 74 98 7.0 9.0 0.00 0.00 0.00 73 1011.9
20260902090004 74 84 7.0 9.0 0.00 0.00 0.00 73 1011.9
20260902085403 74 29 8.0 9.0 0.00 0.00 0.00 73 1011.8
20260902084503 73 25 8.0 9.0 0.00 0.00 0.00 74 1011.8
20260902083813 73 109 7.0 9.0 0.00 0.00 0.00 74 1011.8
20260902082915 73 123 7.0 9.0 0.00 0.00 0.00 74 1011.9
20260902081803 74 110 8.0 10.0 0.00 0.00 0.00 73 1011.8
20260902080903 74 110 8.0 10.0 0.00 0.00 0.00 72 1011.8
20260902080217 74 62 7.0 10.0 0.00 0.00 0.00 71 1011.7
20260902075403 75 13 8.0 11.0 0.00 0.00 0.00 71 1011.8
20260902074503 75 4 10.0 12.0 0.00 0.00 0.00 70 1011.6
20260902073813 75 8 10.0 12.0 0.00 0.00 0.00 70 1011.7
20260902072703 75 11 10.0 12.0 0.00 0.00 0.00 69 1011.7
20260902072013 76 7 11.0 12.0 0.00 0.00 0.00 69 1011.7
20260902070903 76 20 11.0 13.0 0.00 0.00 0.00 68 1011.7
20260902070005 76 43 11.0 13.0 0.00 0.00 0.00 67 1011.6
20260902065614 76 80 10.0 12.0 0.00 0.00 0.00 67 1011.6
20260902064503 77 118 10.0 12.0 0.00 0.00 0.00 66 1011.8
20260902063814 77 120 11.0 13.0 0.00 0.00 0.00 65 1011.6
20260902062703 77 120 11.0 12.0 0.00 0.00 0.00 65 1011.7
20260902061803 77 100 10.0 13.0 0.00 0.00 0.00 65 1011.8
20260902060903 77 60 11.0 13.0 0.00 0.00 0.00 64 1011.7
20260902055403 78 78 11.0 13.0 0.00 0.00 0.00 64 1011.6
20260902054503 78 84 10.0 13.0 0.00 0.00 0.00 64 1011.6
20260902053603 78 110 10.0 12.0 0.00 0.00 0.00 63 1011.6
20260902052703 78 116 10.0 11.0 0.00 0.00 0.00 62 1011.6
20260902052014 78 97 10.0 12.0 0.00 0.00 0.00 62 1011.6
20260902051117 79 79 10.0 12.0 0.00 0.00 0.00 62 1011.7
20260902050214 79 54 10.0 12.0 0.00 0.00 0.00 62 1011.6
20260902045403 79 45 10.0 11.0 0.00 0.00 0.00 61 1011.7
20260902044713 79 53 10.0 12.0 0.00 0.00 0.00 61 1011.6
20260902043603 79 50 10.0 12.0 0.00 0.00 0.00 61 1011.7
20260902042913 79 75 10.0 12.0 0.00 0.00 0.00 62 1011.7
20260902042015 80 125 10.0 11.0 0.00 0.00 0.00 62 1011.6
20260902041112 80 126 10.0 12.0 0.00 0.00 0.00 62 1011.7
20260902040003 80 118 10.0 13.0 0.00 0.00 0.00 62 1011.6
20260902035403 80 105 11.0 12.0 0.00 0.00 0.00 62 1011.7
20260902034714 81 107 11.0 13.0 0.00 0.00 0.00 61 1011.6
20260902033603 82 128 10.0 12.0 0.00 0.00 0.00 59 1011.7
20260902032913 82 118 10.0 13.0 0.00 0.00 0.00 58 1011.6
20260902032016 82 80 11.0 14.0 0.00 0.00 0.00 58 1011.4
20260902030903 83 62 12.0 15.0 0.00 0.00 0.00 57 1011.3
20260902030003 83 57 12.0 15.0 0.00 0.00 0.00 58 1011.2
20260902025403 83 58 13.0 15.0 0.00 0.00 0.00 58 1011.2
20260902024503 83 67 13.0 16.0 0.00 0.00 0.00 58 1011.1
20260902023603 84 85 13.0 15.0 0.00 0.00 0.00 56 1011.0
20260902022914 84 96 13.0 15.0 0.00 0.00 0.00 56 1010.9
20260902021803 85 80 13.0 15.0 0.00 0.00 0.00 55 1010.7
20260902021114 85 74 12.0 15.0 0.00 0.00 0.00 54 1010.7
20260902020003 86 79 13.0 16.0 0.00 0.00 0.00 51 1010.5
20260902015403 86 89 13.0 16.0 0.00 0.00 0.00 50 1010.4
20260902014715 87 113 14.0 18.0 0.00 0.00 0.00 49 1010.3
20260902013812 88 122 13.0 18.0 0.00 0.00 0.00 47 1010.2
20260902012915 87 131 11.0 16.0 0.00 0.00 0.00 48 1010.1
20260902011803 87 133 10.0 13.0 0.00 0.00 0.00 49 1010.0
20260902010903 87 124 11.0 14.0 0.00 0.00 0.00 50 1009.9
20260902010217 87 115 11.0 14.0 0.00 0.00 0.00 50 1009.9
20260902005613 88 117 11.0 14.0 0.00 0.00 0.00 49 1009.9
20260902004503 89 120 11.0 13.0 0.00 0.00 0.00 47 1009.9
20260902003603 91 119 10.0 13.0 0.00 0.00 0.00 45 1009.9
20260902002915 92 128 10.0 13.0 0.00 0.00 0.00 43 1010.0
20260902002012 93 131 10.0 13.0 0.00 0.00 0.00 42 1010.0
20260902000903 94 126 10.0 14.0 0.00 0.00 0.00 41 1010.1
20260902000004 95 126 10.0 15.0 0.00 0.00 0.00 40 1010.1
20260901235403 96 130 11.0 15.0 0.00 0.00 0.00 38 1010.2
20260901234716 97 134 12.0 16.0 0.00 0.00 0.00 37 1010.2
20260901233603 97 134 12.0 15.0 0.00 0.00 0.00 37 1010.2
20260901232916 98 137 13.0 19.0 0.00 0.00 0.00 36 1010.3
20260901231803 98 137 13.0 21.0 0.00 0.00 0.00 36 1010.4
20260901230903 99 141 12.0 17.0 0.00 0.00 0.00 36 1010.3
20260901230213 100 150 13.0 21.0 0.00 0.00 0.00 34 1010.3
20260901225614 100 148 13.0 21.0 0.00 0.00 0.00 33 1010.4
20260901224717 100 143 13.0 23.0 0.00 0.00 0.00 33 1010.4
20260901223814 100 136 15.0 20.0 0.00 0.00 0.00 34 1010.4
20260901222916 101 150 14.0 24.0 0.00 0.00 0.00 33 1010.5
20260901222014 101 143 12.0 20.0 0.00 0.00 0.00 33 1010.5
20260901221116 101 145 15.0 24.0 0.00 0.00 0.00 33 1010.5
20260901220003 101 159 16.0 23.0 0.00 0.00 0.00 32 1010.5
20260901215615 101 154 16.0 26.0 0.00 0.00 0.00 32 1010.5
20260901214503 101 152 17.0 26.0 0.00 0.00 0.00 32 1010.6
20260901213603 102 152 16.0 24.0 0.00 0.00 0.00 33 1010.7
20260901212917 102 159 14.0 24.0 0.00 0.00 0.00 32 1010.7
20260901212015 102 168 16.0 26.0 0.00 0.00 0.00 32 1010.8
20260901211117 102 161 18.0 30.0 0.00 0.00 0.00 32 1010.8
20260901210004 102 154 17.0 29.0 0.00 0.00 0.00 33 1010.8
20260901205616 102 156 18.0 29.0 0.00 0.00 0.00 32 1010.9
20260901204713 102 158 18.0 31.0 0.00 0.00 0.00 32 1011.0
20260901203815 102 160 17.0 29.0 0.00 0.00 0.00 33 1011.1
20260901202703 102 165 18.0 35.0 0.00 0.00 0.00 32 1011.3
20260901201803 102 164 16.0 28.0 0.00 0.00 0.00 31 1011.4
20260901201112 102 164 18.0 32.0 0.00 0.00 0.00 33 1011.4
20260901200215 102 162 20.0 32.0 0.00 0.00 0.00 32 1011.5
20260901195403 102 165 21.0 32.0 0.00 0.00 0.00 31 1011.5
20260901194714 102 169 18.0 32.0 0.00 0.00 0.00 32 1011.6
20260901193816 102 157 18.0 29.0 0.00 0.00 0.00 33 1011.6
20260901192703 101 167 20.0 30.0 0.00 0.00 0.00 33 1011.8
20260901192016 102 161 20.0 30.0 0.00 0.00 0.00 33 1011.8
20260901191113 101 166 18.0 27.0 0.00 0.00 0.00 33 1011.9
20260901190215 101 162 17.0 31.0 0.00 0.00 0.00 33 1011.9
20260901185617 101 178 16.0 25.0 0.00 0.00 0.00 35 1011.9
20260901184503 100 172 19.0 29.0 0.00 0.00 0.00 34 1012.0
20260901183817 100 163 19.0 26.0 0.00 0.00 0.00 36 1012.2
20260901182704 99 164 20.0 30.0 0.00 0.00 0.00 36 1012.4
20260901181804 99 166 20.0 29.0 0.00 0.00 0.00 37 1012.5
20260901181114 99 168 18.0 29.0 0.00 0.00 0.00 36 1012.7
20260901180004 99 170 18.0 28.0 0.00 0.00 0.00 37 1012.8
20260901175613 98 171 17.0 28.0 0.00 0.00 0.00 37 1012.9
20260901174503 98 174 15.0 29.0 0.00 0.00 0.00 38 1013.0
20260901173603 98 185 14.0 22.0 0.00 0.00 0.00 37 1013.1
20260901172915 98 169 17.0 30.0 0.00 0.00 0.00 38 1013.1
20260901172017 97 183 15.0 26.0 0.00 0.00 0.00 40 1013.2
20260901171114 96 178 17.0 26.0 0.00 0.00 0.00 39 1013.3
20260901170003 96 173 17.0 30.0 0.00 0.00 0.00 40 1013.2
20260901165403 96 178 17.0 27.0 0.00 0.00 0.00 39 1013.2
20260901164716 95 177 18.0 28.0 0.00 0.00 0.00 39 1013.2
20260901163603 95 180 17.0 28.0 0.00 0.00 0.00 38 1013.2
20260901162703 94 178 18.0 27.0 0.00 0.00 0.00 39 1013.2
20260901161803 94 175 19.0 28.0 0.00 0.00 0.00 41 1013.2
20260901160903 94 175 15.0 26.0 0.00 0.00 0.00 41 1013.1
20260901160003 93 180 17.0 26.0 0.00 0.00 0.00 42 1013.0
20260901155614 92 180 18.0 26.0 0.00 0.00 0.00 42 1013.0
20260901154503 92 172 15.0 24.0 0.00 0.00 0.00 45 1012.9
20260901153813 91 173 15.0 24.0 0.00 0.00 0.00 45 1012.9
20260901152916 90 168 18.0 25.0 0.00 0.00 0.00 46 1012.9
20260901152013 90 167 16.0 26.0 0.00 0.00 0.00 47 1013.0
20260901151116 89 166 16.0 24.0 0.00 0.00 0.00 49 1013.0
20260901150213 88 165 17.0 24.0 0.00 0.00 0.00 49 1013.0
20260901145614 87 168 16.0 24.0 0.00 0.00 0.00 50 1013.0
20260901144504 86 164 16.0 26.0 0.00 0.00 0.00 51 1013.0
20260901143814 86 165 15.0 24.0 0.00 0.00 0.00 52 1013.2
20260901142917 85 156 14.0 21.0 0.00 0.00 0.00 53 1013.2
20260901142014 85 159 12.0 21.0 0.00 0.00 0.00 53 1013.3
20260901140903 83 152 14.0 22.0 0.00 0.00 0.00 55 1013.3
20260901140213 83 149 14.0 21.0 0.00 0.00 0.00 55 1013.4
20260901135403 82 154 11.0 21.0 0.00 0.00 0.00 58 1013.5
20260901134503 81 157 9.0 14.0 0.00 0.00 0.00 59 1013.7
20260901133603 80 157 9.0 14.0 0.00 0.00 0.00 61 1013.8
20260901132703 79 157 9.0 15.0 0.00 0.00 0.00 62 1013.7
20260901132014 78 156 10.0 15.0 0.00 0.00 0.00 63 1013.7
20260901130903 77 146 9.0 13.0 0.00 0.00 0.00 65 1013.4
20260901130003 76 151 9.0 13.0 0.00 0.00 0.00 68 1013.5
20260901125616 75 152 8.0 13.0 0.00 0.00 0.00 69 1013.5
20260901124504 74 145 6.0 10.0 0.00 0.00 0.00 72 1013.4
20260901123815 73 142 7.0 10.0 0.00 0.00 0.00 73 1013.3
20260901122703 72 137 8.0 9.0 0.00 0.00 0.00 74 1013.2
20260901122015 72 136 8.0 9.0 0.00 0.00 0.00 75 1013.2
20260901121112 72 133 9.0 11.0 0.00 0.00 0.00 75 1013.1
20260901120215 71 132 8.0 10.0 0.00 0.00 0.00 75 1013.1
20260901115616 71 123 8.0 10.0 0.00 0.00 0.00 75 1013.1
20260901114503 72 127 8.0 10.0 0.00 0.00 0.00 75 1013.0
20260901113816 72 123 8.0 9.0 0.00 0.00 0.00 75 1012.9
20260901112913 72 129 7.0 9.0 0.00 0.00 0.00 74 1013.0
20260901111803 73 134 6.0 10.0 0.00 0.00 0.00 73 1013.0
20260901110903 73 133 7.0 10.0 0.00 0.00 0.00 73 1012.9
20260901110003 73 126 7.0 9.0 0.00 0.00 0.00 72 1013.0
20260901105617 73 124 7.0 9.0 0.00 0.00 0.00 72 1013.0
20260901104714 73 120 7.0 9.0 0.00 0.00 0.00 71 1013.0
20260901103604 74 132 6.0 9.0 0.00 0.00 0.00 70 1012.9
20260901102914 74 132 6.0 9.0 0.00 0.00 0.00 70 1012.9
20260901102016 74 131 7.0 9.0 0.00 0.00 0.00 70 1013.0
20260901101114 74 131 7.0 9.0 0.00 0.00 0.00 70 1012.9
20260901100216 75 130 6.0 10.0 0.00 0.00 0.00 69 1013.1
20260901095618 76 138 6.0 10.0 0.00 0.00 0.00 67 1013.0
20260901094715 77 144 8.0 10.0 0.00 0.00 0.00 65 1012.9
20260901093603 76 156 9.0 14.0 0.00 0.00 0.00 65 1012.8
20260901092703 75 142 8.0 14.0 0.00 0.00 0.00 69 1012.8
20260901092017 74 132 9.0 10.0 0.00 0.00 0.00 70 1012.6
20260901091114 75 130 8.0 11.0 0.00 0.00 0.00 70 1012.7